Regional Weather Roundup
Issued by NWS Charleston, SC

Current Version | Previous Version | Graphics & Text | Print | Product List | Glossary On
Versions: 1 2 3 4 5 6 7 8 9 10 11 12 13 14 15 16 17 18 19 20 21 22 23 24 25 26 27 28 29 30 31 32 33 34 35 36 37 38 39 40 41 42 43 44 45 46 47 48 49 50
000
ASUS42 KCHS 041712
RWRCHS

REGIONAL WEATHER ROUNDUP
NATIONAL WEATHER SERVICE CHARLESTON SC
1200 PM EST SUN DEC 04 2016

NOTE: "FAIR" INDICATES FEW OR NO CLOUDS BELOW 12,000 FEET WITH NO
SIGNIFICANT WEATHER AND/OR OBSTRUCTIONS TO VISIBILITY.

NOT ALL STATIONS ARE QUALITY CONTROLLED. USE DATA WITH CAUTION...
ESPECIALLY DEWPOINT OBSERVATIONS.

SCZ027-030-031-034>040-042>050-041800-
...SOUTHEAST SOUTH CAROLINA...

CITY           SKY/WX    TMP DP  RH WIND       PRES   REMARKS
N CHARLESTON   CLOUDY    58  43  57 NE8       30.20F
WATERFRONT PRK   N/A     56  49  78 E9        30.21S
MOUNT PLEASANT NOT AVBL
JOHNS ISLAND   CLOUDY    57  48  72 NE10      30.19F
PINOPOLIS        N/A     54  39  58 E7        30.14F
MONCKS CORNER  CLOUDY    54  37  54 E9        30.21F
SUMMERVILLE    CLOUDY    54  41  62 E6        30.21F
BEAUFORT MCAS  PTSUNNY   59  47  64 E10       30.16F
BEAUFORT ARPT  PTSUNNY   59  50  72 E14       30.16F
HILTON HEAD IS PTSUNNY   63  54  72 NE13      30.16F
WALTERBORO     CLOUDY    55  41  58 E10       30.19F
ALLENDALE      CLOUDY    52  39  62 N5G12     30.20R

...SOUTHERN MIDLANDS AND PEE DEE...

CITY           SKY/WX    TMP DP  RH WIND       PRES   REMARKS
GEORGETOWN     NOT AVBL
KINGSTREE      CLOUDY    50  36  57 E5        30.22F
ORANGEBURG     CLOUDY    52  34  50 E3        30.22F
BARNWELL       NOT AVBL
AIKEN          PTSUNNY   46  39  76 NE9       30.22F
MANNING        NOT AVBL
COLUMBIA       LGT RAIN  49  39  68 E6        30.21F
SUMTER         CLOUDY    48  37  66 NE8       30.21F
FLORENCE       LGT RAIN  48  40  73 NE8       30.23F
MYRTLE BEACH   CLOUDY    52  36  54 NE9       30.24F
N MYRTLE BEACH CLOUDY    50  37  61 NE9       30.22F

$$

GAZ063-065-086>088-099>101-113>116-118-119-134>141-150-041800-
...SOUTHEAST GEORGIA...

CITY           SKY/WX    TMP DP  RH WIND       PRES   REMARKS
SAVANNAH ARPT  PTSUNNY   65  49  56 E12       30.14F
HUNTER AAF     CLOUDY    62  56  79 E15G22    30.12F
FORT STEWART   CLOUDY    64  53  67 E7        30.11F
STATESBORO     CLOUDY    56  46  68 E5        30.16F
SYLVANIA       CLOUDY   N/A N/A N/A NE7       30.19R
CLAXTON        CLOUDY    61  51  70 E7        30.14F

...CSRA...CENTRAL AND FAR SOUTHEAST GEORGIA...

CITY           SKY/WX    TMP DP  RH WIND       PRES   REMARKS
THOMSON        CLOUDY    49  47  93 CALM      30.21F
AUGUSTA-BUSH   LGT RAIN  52  41  66 E5        30.18F
AUGUSTA-DANIEL LGT RAIN  51  38  60 E10       30.18F
SWAINSBORO     DRIZZLE   46  45  93 CALM      30.17F
VIDALIA        CLOUDY    59  50  72 NE8       30.14F
EASTMAN        CLOUDY    57  38  49 E7        30.15F
HAZLEHURST     CLOUDY    62  53  71 E7        30.10F
ALMA           CLOUDY    64  55  72 E6        30.11F
WAYCROSS       CLOUDY    68  60  76 NE5       30.10F
JESUP          CLOUDY    66  59  77 E12       30.12F
BAXLEY         CLOUDY    64  57  77 CALM      30.11F
BRUNSWICK      CLOUDY    72  61  68 SE10      30.11F
SAINT SIMONS   PTSUNNY   71  59  65 E12       30.11F

$$

SCZ027-028-034-036>038-045-046-048>050-GAZ119-141-041800-
...LAKE AND SUPPLEMENTAL COASTAL OBSERVATIONS...

STATION/POSITION TIME  TEMP    WIND        PRES    WAVE   SWELL
                       AIR SEA DIR/SP/G            HT/PER HT/PER/DIR
                 (UTC) (F)     (DEG/KT/KT) (MB)    (FT/S) (FT/S/D)
WINYAH BAY       NOT AVBL
LAKE MURRAY      1620   46      60/  2/  7 1023.4
ACE BASIN NERRS  1545   56      40/  4     1023.0
FORT PULASKI     1636   60 61   80/ 18/ 22 1021.2F
SAPELO ISLAND    1600   69      80/  5     1021.0

$$

ANZ835-935-AMZ111-154-330-350-352-354-370-450-454-472-041800-
...C-MAN AND BUOY OBSERVATIONS...

STATION/POSITION TIME  TEMP    WIND        PRES    WAVE   SWELL
                       AIR SEA DIR/SP/G            HT/PER HT/PER/DIR
                 (UTC) (F)     (DEG/KT/KT) (MB)    (FT/S) (FT/S/D)
BUOY 41004       1650   66 75   90/ 10/ 14 1021.5F   3/ 8   2/110/ 8
BUOY 41008       1650   67 65  120/ 10/ 10 1019.7F   3/ 5   3/ 70/ 5
FOLLY BEACH CMAN 1600   56      40/ 16/ 18 1023.9R
CAPERS NEARSHORE 1608   58 62   50/ 17/ 23 1022.8R
FRIPP NEARSHORE  1608   60 62   60/ 17/ 21 1022.1F


STATION/POSITION TIME  TEMP    WIND        PRES    WAVE   SWELL
                       AIR SEA DIR/SP/G            HT/PER HT/PER/DIR
                 (UTC) (F)     (DEG/KT/KT) (MB)    (FT/S) (FT/S/D)
5E ST. MARYS GA  1630      66                N/A     4/ 5
FRYING PAN BUOY  1650   61 74   40/ 12/ 17 1022.5F   4/ 9   2/ 70/ 9
BUOY 41025       1650   55 75  360/ 10/ 14 1023.7F   5/ 9   5/ 60/ 9
CAPE LOOKOUT NC  1600   51      20/  8/ 10 1024.4F
BUOY 41002       1650   65 73   60/  2/  4 1022.4F   5/ 9   5/ 20/ 9
BUOY 41010       NOT AVBL
ST AUGUSTINE FL  1700   69 67  160/ 11/ 11 1019.5F


$$



USA.gov is the U.S. government's official web portal to all federal, state and local government web resources and services.